GW1187 Weather Reports


Display with metric or nautical units.
time (UTC)temp
F
wind
direction
speed
MPH
gust
MPH
rain 1hr
in
rain 24hr
in
rain mn
in
humidity
%
barometer
mb
20260502163043 51 136 2.0 6.0 0.00 0.13 0.13 73 1010.2
20260502161541 52 44 2.0 6.0 0.00 0.13 0.13 75 1010.1
20260502151551 49 0 1.0 3.0 0.00 0.13 0.13 86 1010.7
20260502123049 43 0 0.0 0.0 0.01 0.13 0.13 94 1011.6
20260502121550 43 0 0.0 0.0 0.02 0.13 0.13 94 1011.6
20260502114545 43 0 0.0 0.0 0.03 0.13 0.13 94 1011.6
20260502113047 42 0 0.0 0.0 0.02 0.12 0.12 94 1011.7
20260502111600 42 0 0.0 0.0 0.01 0.11 0.11 94 1011.8
20260502110047 42 0 0.0 0.0 0.00 0.10 0.10 94 1011.4
20260502104545 42 0 0.0 0.0 0.01 0.10 0.10 94 1011.1
20260502103059 42 0 0.0 0.0 0.02 0.10 0.10 94 1011.0
20260502101540 42 0 0.0 0.0 0.04 0.10 0.10 94 1011.0
20260502070048 42 0 0.0 0.0 0.00 0.00 0.00 90 1011.5
20260502064551 42 0 0.0 0.0 0.00 0.00 0.00 89 1011.4
20260502063048 42 0 0.0 0.0 0.00 0.00 0.00 88 1011.5
20260502061541 42 0 0.0 0.0 0.00 0.00 0.00 87 1011.8
20260502060041 42 0 0.0 0.0 0.00 0.00 0.00 85 1011.8
20260502054543 42 0 0.0 0.0 0.00 0.00 0.00 84 1011.8
20260502053048 43 0 0.0 0.0 0.00 0.00 0.00 80 1011.7
20260502051540 43 0 0.0 0.0 0.00 0.00 0.00 80 1011.5
20260502050046 43 0 0.0 0.0 0.00 0.00 0.00 79 1011.1
20260502044542 42 0 0.0 4.0 0.00 0.00 0.00 78 1011.1
20260502043041 42 0 0.0 0.0 0.00 0.00 0.00 78 1011.3
20260502041541 42 0 0.0 0.0 0.00 0.00 0.00 78 1011.4
20260502040049 42 0 0.0 0.0 0.00 0.00 0.00 78 1011.3
20260502034547 42 0 0.0 0.0 0.00 0.00 0.00 78 1011.3
20260502033049 42 0 0.0 0.0 0.00 0.00 0.00 77 1011.1
20260502031545 42 0 0.0 0.0 0.00 0.00 0.00 77 1011.1
20260502030043 42 0 0.0 0.0 0.00 0.00 0.00 77 1011.1
20260502024543 42 0 0.0 0.0 0.00 0.00 0.00 76 1011.0
20260502023049 42 0 0.0 0.0 0.00 0.00 0.00 76 1011.1
20260502021542 42 0 0.0 0.0 0.00 0.00 0.00 75 1011.2
20260502020043 42 0 0.0 0.0 0.00 0.00 0.00 75 1011.3
20260502014550 42 0 0.0 0.0 0.00 0.00 0.00 74 1011.2
20260502013049 43 0 0.0 0.0 0.00 0.00 0.00 72 1011.0
20260502011548 44 0 0.0 0.0 0.00 0.00 0.00 70 1010.8
20260502010052 45 0 0.0 0.0 0.00 0.00 0.00 67 1010.8
20260502004601 46 0 0.0 0.0 0.00 0.00 0.00 64 1010.5
20260502003048 47 0 0.0 0.0 0.00 0.00 0.00 58 1010.4
20260502001541 49 0 0.0 0.0 0.00 0.00 0.00 55 1010.2
20260502000055 50 0 0.0 0.0 0.00 0.00 0.00 52 1009.9
20260501234546 52 0 0.0 0.0 0.00 0.01 0.00 49 1009.8
20260501233044 54 0 0.0 0.0 0.00 0.01 0.00 45 1009.6
20260501231542 55 0 0.0 1.0 0.00 0.01 0.00 39 1009.3
20260501230041 56 86 0.0 3.0 0.00 0.01 0.00 40 1009.1
20260501224546 56 145 1.0 4.0 0.00 0.01 0.00 36 1009.0
20260501223051 57 0 1.0 5.0 0.00 0.01 0.00 35 1009.1
20260501221546 57 0 1.0 8.0 0.00 0.01 0.00 35 1009.0
20260501220051 58 91 0.0 6.0 0.00 0.01 0.00 34 1009.1
20260501214541 58 179 2.0 10.0 0.00 0.01 0.00 33 1009.1
20260501213107 60 113 2.0 5.0 0.00 0.01 0.00 32 1008.9
20260501211547 60 115 2.0 6.0 0.00 0.01 0.00 32 1008.8
20260501210046 60 340 1.0 6.0 0.00 0.01 0.00 32 1008.5
20260501204549 59 159 1.0 7.0 0.00 0.02 0.00 32 1008.4
20260501203041 59 0 1.0 9.0 0.00 0.02 0.00 33 1008.3
20260501201541 57 169 0.0 6.0 0.00 0.02 0.00 34 1008.5
20260501200040 59 165 2.0 7.0 0.00 0.02 0.00 33 1008.5
20260501194554 58 120 2.0 8.0 0.00 0.02 0.00 34 1008.6
20260501193047 58 70 3.0 8.0 0.00 0.02 0.00 36 1008.7
20260501191545 57 44 2.0 11.0 0.00 0.02 0.00 36 1009.0
20260501190041 58 74 2.0 10.0 0.00 0.02 0.00 36 1009.2
20260501184541 58 144 5.0 9.0 0.00 0.02 0.00 37 1009.0
20260501183045 57 200 3.0 11.0 0.00 0.02 0.00 40 1009.1
20260501181540 56 188 3.0 8.0 0.00 0.02 0.00 40 1009.1
20260501180042 57 82 4.0 12.0 0.00 0.02 0.00 39 1009.0
20260501174620 56 142 3.0 11.0 0.00 0.02 0.00 41 1009.1